Luverne, MN

2:47 PM CST on February 10, 2016 (GMT -0600)
Luverne

Weather History for KLYV - April, 2013

Change the Weather History Date:

Tuesday, April 2, 2013

  Actual Average (KFSD) Record (KFSD)
Temperature  
Mean Temperature 32 °F 40 °F  
Max Temperature 44 °F 52 °F 84 °F (2012)
Min Temperature 19 °F 29 °F 6 °F (1899)
Degree Days  
Heating Degree Days 34 25  
Month to date heating degree days 50  
Since 1 July heating degree days 6895  
Cooling Degree Days 0 0  
Month to date cooling degree days 0  
Year to date cooling degree days 0  
Moisture  
Dew Point 20 °F    
Average Humidity 66    
Maximum Humidity 93    
Minimum Humidity 34    
Precipitation  
Precipitation 0.00 in 0.08 in 1.00 in (1988)
Month to date precipitation 0.17  
Year to date precipitation 3.09  
Snow  
Snow 0.00 in 0.20 in 4.00 in (1899)
Month to date snowfall 0.4  
Since 1 July snowfall 40.3  
Snow Depth -    
Sea Level Pressure  
Sea Level Pressure 30.28 in    
Wind  
Wind Speed 1 mph (NE)    
Max Wind Speed 10 mph    
Max Gust Speed 9 mph    
Visibility 10 miles    
Events      
T = Trace of Precipitation, MM = Missing Value Source: NWS Daily Summary

Daily Weather History Graph

Daily Weather History Graph

Search for Another Location

Airport or City:

Trip Planner

Search our weather history database for the weather conditions in past years. The results will help you decide how hot, cold, wet, or windy it might be!

Date:

Astronomy

Apr. 02, 2013 Rise Set
Actual Time 7:04 AM CDT 7:53 PM CDT
Civil Twilight 6:35 AM CDT 8:22 PM CDT
Nautical Twilight 6:00 AM CDT 8:56 PM CDT
Astronomical Twilight 5:24 AM CDT 9:32 PM CDT
Moon 2:06 AM CDT (4/2) 11:49 AM CDT (4/2)
Length of Visible Light 13h 47m
Length of Day
12h 48m
Waning Gibbous, 55% of the Moon is Illuminated
Apr 2
Waning Gibbous
Apr 2
Last Quarter
Apr 10
New
Apr 18
First Quarter
Apr 25
Full

Hourly Weather History & Observations

Time (CDT) Temp. Windchill Dew Point Humidity Pressure Visibility Wind Dir Wind Speed Gust Speed Precip Events Conditions
12:18 AM 26.6 °F - 19.4 °F 74% 30.27 in 10.0 mi Calm Calm - N/A   Clear
12:37 AM 26.6 °F - 19.4 °F 74% 30.27 in 10.0 mi Calm Calm - N/A   Clear
12:57 AM 23.0 °F - 19.4 °F 86% 30.28 in 10.0 mi Calm Calm - N/A   Clear
1:17 AM 23.0 °F - 19.4 °F 86% 30.28 in 10.0 mi Calm Calm - N/A   Clear
1:37 AM 23.0 °F - 19.4 °F 86% 30.28 in 10.0 mi Calm Calm - N/A   Clear
1:57 AM 23.0 °F - 19.4 °F 86% 30.28 in 10.0 mi Calm Calm - N/A   Clear
2:17 AM 23.0 °F - 19.4 °F 86% 30.28 in 10.0 mi Calm Calm - N/A   Clear
2:37 AM 21.2 °F - 17.6 °F 86% 30.27 in 10.0 mi Calm Calm - N/A   Clear
2:57 AM 19.4 °F - 17.6 °F 93% 30.27 in 10.0 mi Calm Calm - N/A   Clear
3:17 AM 19.4 °F - 17.6 °F 93% 30.26 in 10.0 mi Calm Calm - N/A   Clear
3:37 AM 19.4 °F - 17.6 °F 93% 30.26 in 10.0 mi Calm Calm - N/A   Clear
3:57 AM 21.2 °F - 19.4 °F 93% 30.26 in 10.0 mi Calm Calm - N/A   Clear
4:17 AM 21.2 °F - 17.6 °F 86% 30.26 in 10.0 mi Calm Calm - N/A   Clear
4:37 AM 21.2 °F - 17.6 °F 86% 30.26 in 10.0 mi Calm Calm - N/A   Clear
4:57 AM 19.4 °F - 17.6 °F 93% 30.27 in 10.0 mi Calm Calm - N/A   Clear
5:17 AM 19.4 °F - 17.6 °F 93% 30.27 in 10.0 mi Calm Calm - N/A   Clear
5:37 AM 21.2 °F - 17.6 °F 86% 30.27 in 10.0 mi Calm Calm - N/A   Clear
5:57 AM 19.4 °F - 17.6 °F 93% 30.28 in 10.0 mi Calm Calm - N/A   Clear
6:17 AM 19.4 °F - 17.6 °F 93% 30.28 in 10.0 mi Calm Calm - N/A   Clear
6:37 AM 19.4 °F - 17.6 °F 93% 30.28 in 10.0 mi Calm Calm - N/A   Clear
6:57 AM 19.4 °F - 17.6 °F 93% 30.29 in 10.0 mi Calm Calm - N/A   Clear
7:17 AM 19.4 °F - 15.8 °F 86% 30.29 in 10.0 mi Calm Calm - N/A   Clear
7:37 AM 21.2 °F - 17.6 °F 86% 30.30 in 10.0 mi Calm Calm - N/A   Clear
7:57 AM 21.2 °F - 19.4 °F 93% 30.29 in 10.0 mi Calm Calm - N/A   Clear
8:17 AM 23.0 °F - 21.2 °F 93% 30.30 in 10.0 mi Calm Calm - N/A   Clear
8:37 AM 24.8 °F - 21.2 °F 86% 30.30 in 10.0 mi Calm Calm - N/A   Clear
8:57 AM 26.6 °F - 21.2 °F 80% 30.31 in 10.0 mi Calm Calm - N/A   Clear
9:37 AM 30.2 °F - 21.2 °F 69% 30.30 in 10.0 mi Calm Calm - N/A   Clear
9:57 AM 32.0 °F - 23.0 °F 69% 30.30 in 10.0 mi Calm Calm - N/A   Clear
10:17 AM 32.0 °F - 21.2 °F 64% 30.31 in 10.0 mi Calm Calm - N/A   Clear
10:37 AM 33.8 °F - 21.2 °F 60% 30.30 in 10.0 mi Calm Calm - N/A   Clear
10:57 AM 33.8 °F - 19.4 °F 56% 30.31 in 10.0 mi Calm Calm - N/A   Clear
11:17 AM 35.6 °F 32.8 °F 19.4 °F 52% 30.31 in 10.0 mi East 3.5 mph - N/A   Clear
11:37 AM 37.4 °F - 15.8 °F 41% 30.31 in 10.0 mi Calm Calm - N/A   Clear
11:57 AM 37.4 °F - 17.6 °F 45% 30.31 in 10.0 mi Calm Calm - N/A   Clear
12:17 PM 39.2 °F - 17.6 °F 42% 30.31 in 10.0 mi Calm Calm - N/A   Clear
12:37 PM 39.2 °F - 15.8 °F 39% 30.31 in 10.0 mi Calm Calm - N/A   Clear
12:57 PM 41.0 °F - 17.6 °F 39% 30.30 in 10.0 mi Calm Calm - N/A   Clear
1:17 PM 41.0 °F - 17.6 °F 39% 30.29 in 10.0 mi Calm Calm - N/A   Clear
1:37 PM 41.0 °F - 17.6 °F 39% 30.29 in 10.0 mi Calm Calm - N/A   Scattered Clouds
1:57 PM 41.0 °F 39.0 °F 17.6 °F 39% 30.29 in 10.0 mi NW 3.5 mph - N/A   Mostly Cloudy
2:17 PM 42.8 °F 41.1 °F 17.6 °F 36% 30.28 in 10.0 mi North 3.5 mph - N/A   Mostly Cloudy
2:37 PM 41.0 °F 38.0 °F 17.6 °F 39% 30.27 in 10.0 mi SE 4.6 mph - N/A   Mostly Cloudy
2:57 PM 42.8 °F 41.1 °F 19.4 °F 39% 30.27 in 10.0 mi SW 3.5 mph - N/A   Mostly Cloudy
3:18 PM 42.8 °F 41.1 °F 17.6 °F 36% 30.27 in 10.0 mi NNW 3.5 mph - N/A   Scattered Clouds
3:37 PM 44.6 °F 43.1 °F 17.6 °F 34% 30.26 in 10.0 mi WSW 3.5 mph - N/A   Scattered Clouds
3:57 PM 42.8 °F 39.3 °F 17.6 °F 36% 30.27 in 10.0 mi NW 5.8 mph - N/A   Clear
4:18 PM 44.6 °F 40.7 °F 19.4 °F 37% 30.26 in 10.0 mi North 6.9 mph - N/A   Scattered Clouds
4:37 PM 44.6 °F 43.1 °F 17.6 °F 34% 30.26 in 10.0 mi WNW 3.5 mph - N/A   Scattered Clouds
4:52 PM 44.6 °F 41.4 °F 19.4 °F 37% 30.26 in 10.0 mi North 5.8 mph - N/A   Scattered Clouds
5:24 PM 44.6 °F 43.1 °F 17.6 °F 34% 30.26 in 10.0 mi NNW 3.5 mph 9.2 mph N/A   Clear
5:37 PM 44.6 °F 41.4 °F 17.6 °F 34% 30.26 in 10.0 mi NNW 5.8 mph - N/A   Scattered Clouds
5:57 PM 44.6 °F 42.2 °F 17.6 °F 34% 30.26 in 10.0 mi NNE 4.6 mph - N/A   Clear
6:17 PM 44.6 °F 42.2 °F 19.4 °F 37% 30.26 in 10.0 mi NNE 4.6 mph - N/A   Scattered Clouds
6:37 PM 42.8 °F 38.0 °F 19.4 °F 39% 30.26 in 10.0 mi NE 8.1 mph - N/A   Scattered Clouds
6:57 PM 42.8 °F 38.0 °F 21.2 °F 42% 30.26 in 10.0 mi NE 8.1 mph - N/A   Clear
7:17 PM 41.0 °F 35.2 °F 23.0 °F 49% 30.26 in 10.0 mi NE 9.2 mph - N/A   Clear
7:37 PM 41.0 °F 34.7 °F 24.8 °F 53% 30.27 in 10.0 mi ENE 10.4 mph - N/A   Clear
7:57 PM 37.4 °F 30.8 °F 26.6 °F 65% 30.26 in 10.0 mi NE 9.2 mph - N/A   Clear
8:18 PM 35.6 °F 28.6 °F 26.6 °F 70% 30.27 in 10.0 mi ENE 9.2 mph - N/A   Clear
8:37 PM 33.8 °F 26.4 °F 26.6 °F 75% 30.28 in 10.0 mi ENE 9.2 mph - N/A   Clear
8:57 PM 33.8 °F 26.4 °F 26.6 °F 75% 30.28 in 10.0 mi ENE 9.2 mph - N/A   Clear
9:18 PM 32.0 °F 25.6 °F 26.6 °F 80% 30.29 in 10.0 mi ENE 6.9 mph - N/A   Clear
9:37 PM 32.0 °F 24.8 °F 26.6 °F 80% 30.29 in 10.0 mi ENE 8.1 mph - N/A   Clear
9:57 PM 32.0 °F 25.6 °F 26.6 °F 80% 30.31 in 10.0 mi ENE 6.9 mph - N/A   Clear
10:18 PM 32.0 °F 27.5 °F 26.6 °F 80% 30.31 in 10.0 mi ENE 4.6 mph - N/A   Clear
10:37 PM 32.0 °F 28.7 °F 26.6 °F 80% 30.32 in 10.0 mi East 3.5 mph - N/A   Clear
10:57 PM 30.2 °F 25.4 °F 24.8 °F 80% 30.32 in 10.0 mi ENE 4.6 mph - N/A   Clear
11:18 PM 30.2 °F 26.7 °F 24.8 °F 80% 30.31 in 10.0 mi ENE 3.5 mph - N/A   Clear
11:37 PM 30.2 °F 26.7 °F 24.8 °F 80% 30.31 in 10.0 mi East 3.5 mph - N/A   Clear
11:57 PM 30.2 °F 26.7 °F 23.0 °F 75% 30.31 in 10.0 mi East 3.5 mph - N/A   Clear